Location: Cedar Springs
(43.2230°N, 85.5510°W)
Time: 20:16:59
(UTC-04:00)

Cosmos 2278 Rocket - Visible Passes

Search period start: 23 July 2014 00:00
Search period end: 02 August 2014 00:00
Orbit: 840 x 847 km, 71.0° (Epoch: 22 July)

Date Brightness Start Highest point End Pass type
(mag) Time Alt. Az. Time Alt. Az. Time Alt. Az.
23 Jul 3.0 05:21:35 10° S 05:27:02 51° ESE 05:32:31 10° NE visible
24 Jul 3.0 05:07:11 10° S 05:12:36 49° ESE 05:18:03 10° NE visible
25 Jul 3.0 04:52:47 10° S 04:58:09 47° ESE 05:03:34 10° NE visible
26 Jul 3.1 04:39:00 13° S 04:43:43 45° ESE 04:49:06 10° NE visible
27 Jul 3.1 04:25:16 17° S 04:29:17 43° ESE 04:34:37 10° NE visible
28 Jul 3.1 04:11:29 21° SSE 04:14:50 41° ESE 04:20:08 10° NE visible
28 Jul 3.2 05:54:01 10° WSW 05:59:01 32° NW 06:04:05 10° N visible
29 Jul 3.1 03:57:40 24° SSE 04:00:24 40° ESE 04:05:39 10° NE visible
29 Jul 3.2 05:39:32 10° WSW 05:44:33 33° NW 05:49:39 10° N visible
30 Jul 3.2 03:43:48 28° SSE 03:45:58 38° ESE 03:51:10 10° NE visible
30 Jul 3.2 05:25:40 13° WSW 05:30:05 34° NW 05:35:14 10° N visible
31 Jul 3.2 03:29:54 30° SE 03:31:32 37° ESE 03:36:41 10° NE visible
31 Jul 3.1 05:11:46 17° WSW 05:15:36 35° NW 05:20:48 10° N visible
01 Aug 3.2 03:15:58 32° SE 03:17:06 35° ESE 03:22:12 10° NE visible
01 Aug 3.1 04:57:50 20° WSW 05:01:08 37° WNW 05:06:22 10° N visible
